Time,TemperatureF,DewpointF,PressureIn,WindDirection,WindDirectionDegrees,WindSpeedMPH,WindSpeedGustMPH,Humidity,HourlyPrecipIn,Conditions,Clouds,dailyrainin,SoftwareType,DateUTC
2013-08-17 00:00:00,59.7,57.1,30.12,ESE,114,1.0,1.0,91,0.00,,,0.00,Wunderground v.1.15,2013-08-17 04:00:00,
2013-08-17 00:05:00,59.6,57.0,30.12,SSW,195,1.0,6.0,91,0.00,,,0.00,Wunderground v.1.15,2013-08-17 04:05:00,
2013-08-17 00:10:00,59.5,56.9,30.12,ESE,122,1.0,6.0,91,0.00,,,0.00,Wunderground v.1.15,2013-08-17 04:10:00,
2013-08-17 00:15:00,59.4,56.8,30.12,SE,136,2.0,6.0,91,0.00,,,0.00,Wunderground v.1.15,2013-08-17 04:15:00,
2013-08-17 00:20:00,59.3,56.7,30.12,South,191,1.0,1.0,91,0.00,,,0.00,Wunderground v.1.15,2013-08-17 04:20:00,
2013-08-17 00:30:00,59.3,56.7,30.12,WSW,257,2.0,2.0,91,0.00,,,0.00,Wunderground v.1.15,2013-08-17 04:30:00,
2013-08-17 00:35:00,59.3,56.7,30.12,South,173,3.0,4.0,91,0.00,,,0.00,Wunderground v.1.15,2013-08-17 04:35:00,
2013-08-17 00:40:00,59.3,56.7,30.12,ESE,120,3.0,3.0,91,0.00,,,0.00,Wunderground v.1.15,2013-08-17 04:40:00,
2013-08-17 00:45:00,59.3,56.7,30.12,NW,312,3.0,6.0,91,0.00,,,0.00,Wunderground v.1.15,2013-08-17 04:45:00,
2013-08-17 00:55:00,59.2,56.6,30.12,SE,146,2.0,6.0,91,0.00,,,0.00,Wunderground v.1.15,2013-08-17 04:55:00,
2013-08-17 01:00:00,59.1,56.2,30.12,East,101,2.0,6.0,90,0.00,,,0.00,Wunderground v.1.15,2013-08-17 05:00:00,
2013-08-17 01:05:00,59.1,56.2,30.12,SSE,153,2.0,6.0,90,0.00,,,0.00,Wunderground v.1.15,2013-08-17 05:05:00,
2013-08-17 01:10:00,59.1,56.2,30.12,SSE,158,2.0,6.0,90,0.00,,,0.00,Wunderground v.1.15,2013-08-17 05:10:00,
2013-08-17 01:15:00,59.1,56.2,30.12,SSE,166,2.0,6.0,90,0.00,,,0.00,Wunderground v.1.15,2013-08-17 05:15:00,
2013-08-17 01:20:00,59.1,56.2,30.12,SE,141,2.0,2.0,90,0.00,,,0.00,Wunderground v.1.15,2013-08-17 05:20:00,
2013-08-17 01:25:00,59.1,56.2,30.12,SSE,166,2.0,6.0,90,0.00,,,0.00,Wunderground v.1.15,2013-08-17 05:25:00,
2013-08-17 01:30:00,59.1,56.2,30.11,NNW,330,2.0,2.0,90,0.00,,,0.00,Wunderground v.1.15,2013-08-17 05:30:00,
2013-08-17 01:35:00,59.1,56.2,30.11,SW,226,2.0,6.0,90,0.00,,,0.00,Wunderground v.1.15,2013-08-17 05:35:00,
2013-08-17 01:40:00,59.0,56.1,30.11,SSE,157,2.0,6.0,90,0.00,,,0.00,Wunderground v.1.15,2013-08-17 05:40:00,
2013-08-17 01:45:00,59.0,56.1,30.11,South,170,3.0,6.0,90,0.00,,,0.00,Wunderground v.1.15,2013-08-17 05:45:00,
2013-08-17 01:50:00,58.9,56.0,30.11,SW,236,2.0,6.0,90,0.00,,,0.00,Wunderground v.1.15,2013-08-17 05:50:00,
2013-08-17 01:55:00,58.8,55.9,30.12,SSW,195,2.0,6.0,90,0.00,,,0.00,Wunderground v.1.15,2013-08-17 05:55:00,
2013-08-17 02:00:00,58.8,55.9,30.11,SW,232,3.0,3.0,90,0.00,,,0.00,Wunderground v.1.15,2013-08-17 06:00:00,
2013-08-17 02:05:00,58.8,55.9,30.11,SW,228,2.0,6.0,90,0.00,,,0.00,Wunderground v.1.15,2013-08-17 06:05:00,
2013-08-17 02:10:00,58.8,55.9,30.12,East,98,2.0,6.0,90,0.00,,,0.00,Wunderground v.1.15,2013-08-17 06:10:00,
2013-08-17 02:15:00,58.7,55.8,30.12,SE,132,2.0,6.0,90,0.00,,,0.00,Wunderground v.1.15,2013-08-17 06:15:00,
2013-08-17 02:20:00,58.8,55.9,30.12,SSE,158,2.0,2.0,90,0.00,,,0.00,Wunderground v.1.15,2013-08-17 06:20:00,
2013-08-17 02:25:00,58.7,55.8,30.12,SE,135,1.0,6.0,90,0.00,,,0.00,Wunderground v.1.15,2013-08-17 06:25:00,
2013-08-17 02:30:00,58.7,55.8,30.12,East,91,1.0,1.0,90,0.00,,,0.00,Wunderground v.1.15,2013-08-17 06:30:00,
2013-08-17 02:35:00,58.6,55.4,30.12,East,85,2.0,2.0,89,0.00,,,0.00,Wunderground v.1.15,2013-08-17 06:35:00,
2013-08-17 02:40:00,58.6,55.4,30.12,SW,219,2.0,2.0,89,0.00,,,0.00,Wunderground v.1.15,2013-08-17 06:40:00,
2013-08-17 02:45:00,58.6,55.4,30.11,SSW,200,1.0,6.0,89,0.00,,,0.00,Wunderground v.1.15,2013-08-17 06:45:00,
2013-08-17 02:50:00,58.6,55.4,30.12,SE,146,0.0,6.0,89,0.00,,,0.00,Wunderground v.1.15,2013-08-17 06:50:00,
2013-08-17 02:55:00,58.5,55.0,30.11,South,191,1.0,6.0,88,0.00,,,0.00,Wunderground v.1.15,2013-08-17 06:55:00,
2013-08-17 03:00:00,58.5,55.0,30.11,SSW,200,2.0,2.0,88,0.00,,,0.00,Wunderground v.1.15,2013-08-17 07:00:00,
2013-08-17 03:05:00,58.4,54.9,30.11,SE,127,1.0,6.0,88,0.00,,,0.00,Wunderground v.1.15,2013-08-17 07:05:00,
2013-08-17 03:10:00,58.4,54.9,30.12,SSE,153,1.0,1.0,88,0.00,,,0.00,Wunderground v.1.15,2013-08-17 07:10:00,
2013-08-17 03:15:00,58.3,54.4,30.12,South,178,2.0,4.0,87,0.00,,,0.00,Wunderground v.1.15,2013-08-17 07:15:00,
2013-08-17 03:20:00,58.3,54.4,30.12,SW,231,2.0,2.0,87,0.00,,,0.00,Wunderground v.1.15,2013-08-17 07:20:00,
2013-08-17 03:30:00,58.2,54.7,30.12,ESE,112,1.0,1.0,88,0.00,,,0.00,Wunderground v.1.15,2013-08-17 07:30:00,
2013-08-17 03:35:00,58.2,54.7,30.12,SW,224,1.0,6.0,88,0.00,,,0.00,Wunderground v.1.15,2013-08-17 07:35:00,
2013-08-17 03:40:00,58.2,54.7,30.12,SE,136,2.0,6.0,88,0.00,,,0.00,Wunderground v.1.15,2013-08-17 07:40:00,
2013-08-17 03:45:00,58.2,54.7,30.12,ESE,121,2.0,6.0,88,0.00,,,0.00,Wunderground v.1.15,2013-08-17 07:45:00,
2013-08-17 03:50:00,58.2,54.7,30.12,SW,224,2.0,6.0,88,0.00,,,0.00,Wunderground v.1.15,2013-08-17 07:50:00,
2013-08-17 04:00:00,58.1,54.6,30.12,SSE,156,1.0,6.0,88,0.00,,,0.00,Wunderground v.1.15,2013-08-17 08:00:00,
2013-08-17 04:10:00,58.0,54.5,30.12,NE,46,1.0,6.0,88,0.00,,,0.00,Wunderground v.1.15,2013-08-17 08:10:00,
2013-08-17 04:15:00,58.0,54.2,30.12,SSE,152,1.0,6.0,87,0.00,,,0.00,Wunderground v.1.15,2013-08-17 08:15:00,
2013-08-17 04:20:00,58.0,54.2,30.12,SW,236,1.0,1.0,87,0.00,,,0.00,Wunderground v.1.15,2013-08-17 08:20:00,
2013-08-17 04:25:00,57.9,54.1,30.12,East,82,1.0,2.0,87,0.00,,,0.00,Wunderground v.1.15,2013-08-17 08:25:00,
2013-08-17 04:30:00,57.8,54.3,30.12,SE,138,1.0,6.0,88,0.00,,,0.00,Wunderground v.1.15,2013-08-17 08:30:00,
2013-08-17 04:35:00,57.8,54.0,30.12,SE,144,1.0,6.0,87,0.00,,,0.00,Wunderground v.1.15,2013-08-17 08:35:00,
2013-08-17 04:40:00,57.8,54.0,30.11,ENE,76,1.0,6.0,87,0.00,,,0.00,Wunderground v.1.15,2013-08-17 08:40:00,
2013-08-17 04:45:00,57.8,54.3,30.11,South,181,1.0,6.0,88,0.00,,,0.00,Wunderground v.1.15,2013-08-17 08:45:00,
2013-08-17 04:50:00,57.8,54.3,30.12,South,179,1.0,6.0,88,0.00,,,0.00,Wunderground v.1.15,2013-08-17 08:50:00,
2013-08-17 04:55:00,57.8,54.3,30.12,SW,222,0.0,6.0,88,0.00,,,0.00,Wunderground v.1.15,2013-08-17 08:55:00,
2013-08-17 05:00:00,57.8,54.0,30.11,SE,132,0.0,6.0,87,0.00,,,0.00,Wunderground v.1.15,2013-08-17 09:00:00,
2013-08-17 05:05:00,57.8,54.0,30.11,WSW,245,0.0,6.0,87,0.00,,,0.00,Wunderground v.1.15,2013-08-17 09:05:00,
2013-08-17 05:10:00,57.8,54.3,30.11,WSW,245,0.0,6.0,88,0.00,,,0.00,Wunderground v.1.15,2013-08-17 09:10:00,
2013-08-17 05:15:00,57.8,54.6,30.11,South,177,0.0,6.0,89,0.00,,,0.00,Wunderground v.1.15,2013-08-17 09:15:00,
2013-08-17 05:20:00,57.7,53.9,30.11,South,184,0.0,6.0,87,0.00,,,0.00,Wunderground v.1.15,2013-08-17 09:20:00,
2013-08-17 05:25:00,57.7,54.2,30.11,South,184,0.0,6.0,88,0.00,,,0.00,Wunderground v.1.15,2013-08-17 09:25:00,
2013-08-17 05:30:00,57.7,54.2,30.11,South,184,0.0,6.0,88,0.00,,,0.00,Wunderground v.1.15,2013-08-17 09:30:00,
2013-08-17 05:35:00,57.6,54.1,30.11,South,183,0.0,6.0,88,0.00,,,0.00,Wunderground v.1.15,2013-08-17 09:35:00,
2013-08-17 05:40:00,57.6,54.4,30.11,South,183,0.0,6.0,89,0.00,,,0.00,Wunderground v.1.15,2013-08-17 09:40:00,
2013-08-17 05:45:00,57.5,54.3,30.11,SW,231,0.0,6.0,89,0.00,,,0.00,Wunderground v.1.15,2013-08-17 09:45:00,
2013-08-17 05:50:00,57.5,54.3,30.11,SW,231,0.0,6.0,89,0.00,,,0.00,Wunderground v.1.15,2013-08-17 09:50:00,
2013-08-17 05:55:00,57.4,54.2,30.11,SW,231,0.0,6.0,89,0.00,,,0.00,Wunderground v.1.15,2013-08-17 09:55:00,
2013-08-17 06:00:00,57.4,54.2,30.11,SW,231,0.0,6.0,89,0.00,,,0.00,Wunderground v.1.15,2013-08-17 10:00:00,
2013-08-17 06:05:00,57.3,54.1,30.11,SW,231,0.0,6.0,89,0.00,,,0.00,Wunderground v.1.15,2013-08-17 10:05:00,
2013-08-17 06:10:00,57.3,53.8,30.11,SW,231,0.0,6.0,88,0.00,,,0.00,Wunderground v.1.15,2013-08-17 10:10:00,
2013-08-17 06:15:00,57.3,53.8,30.11,SE,146,0.0,6.0,88,0.00,,,0.00,Wunderground v.1.15,2013-08-17 10:15:00,
2013-08-17 06:20:00,57.3,53.8,30.11,SE,136,0.0,6.0,88,0.00,,,0.00,Wunderground v.1.15,2013-08-17 10:20:00,
2013-08-17 06:25:00,57.3,54.1,30.11,SE,137,0.0,6.0,89,0.00,,,0.00,Wunderground v.1.15,2013-08-17 10:25:00,
2013-08-17 06:30:00,57.1,53.9,30.11,SE,136,0.0,6.0,89,0.00,,,0.00,Wunderground v.1.15,2013-08-17 10:30:00,
2013-08-17 06:35:00,57.0,54.1,30.11,SE,136,0.0,6.0,90,0.00,,,0.00,Wunderground v.1.15,2013-08-17 10:35:00,
2013-08-17 06:40:00,56.7,54.1,30.11,SE,136,0.0,6.0,91,0.00,,,0.00,Wunderground v.1.15,2013-08-17 10:40:00,
2013-08-17 06:50:00,56.6,54.0,30.12,SE,137,0.0,6.0,91,0.00,,,0.00,Wunderground v.1.15,2013-08-17 10:50:00,
2013-08-17 06:55:00,56.6,54.0,30.12,SE,136,0.0,6.0,91,0.00,,,0.00,Wunderground v.1.15,2013-08-17 10:55:00,
2013-08-17 07:00:00,56.7,54.1,30.13,SE,136,0.0,6.0,91,0.00,,,0.00,Wunderground v.1.15,2013-08-17 11:00:00,
2013-08-17 07:05:00,56.7,54.1,30.13,SE,137,0.0,6.0,91,0.00,,,0.00,Wunderground v.1.15,2013-08-17 11:05:00,
2013-08-17 07:10:00,56.7,54.1,30.13,SE,136,0.0,6.0,91,0.00,,,0.00,Wunderground v.1.15,2013-08-17 11:10:00,
2013-08-17 07:15:00,56.8,54.5,30.13,SE,136,0.0,6.0,92,0.00,,,0.00,Wunderground v.1.15,2013-08-17 11:15:00,
2013-08-17 07:20:00,56.8,54.2,30.13,SE,137,0.0,6.0,91,0.00,,,0.00,Wunderground v.1.15,2013-08-17 11:20:00,
2013-08-17 07:25:00,56.7,54.1,30.12,North,352,0.0,6.0,91,0.00,,,0.00,Wunderground v.1.15,2013-08-17 11:25:00,
2013-08-17 07:30:00,56.8,54.5,30.13,North,354,0.0,6.0,92,0.00,,,0.00,Wunderground v.1.15,2013-08-17 11:30:00,
2013-08-17 07:35:00,56.8,54.5,30.13,ESE,103,0.0,6.0,92,0.00,,,0.00,Wunderground v.1.15,2013-08-17 11:35:00,
2013-08-17 07:45:00,56.5,53.9,30.13,SE,136,1.0,6.0,91,0.00,,,0.00,Wunderground v.1.15,2013-08-17 11:45:00,
2013-08-17 07:55:00,56.6,53.7,30.13,ESE,108,1.0,6.0,90,0.00,,,0.00,Wunderground v.1.15,2013-08-17 11:55:00,
2013-08-17 08:00:00,56.7,53.8,30.13,East,84,1.0,6.0,90,0.00,,,0.00,Wunderground v.1.15,2013-08-17 12:00:00,
2013-08-17 08:05:00,56.7,53.8,30.14,East,86,1.0,6.0,90,0.00,,,0.00,Wunderground v.1.15,2013-08-17 12:05:00,
2013-08-17 08:10:00,56.7,54.1,30.14,East,101,1.0,6.0,91,0.00,,,0.00,Wunderground v.1.15,2013-08-17 12:10:00,
2013-08-17 08:15:00,56.6,53.7,30.13,ESE,102,1.0,6.0,90,0.00,,,0.00,Wunderground v.1.15,2013-08-17 12:15:00,
2013-08-17 08:20:00,56.6,53.7,30.13,NNW,329,0.0,6.0,90,0.00,,,0.00,Wunderground v.1.15,2013-08-17 12:20:00,
2013-08-17 08:25:00,56.8,53.6,30.13,NNW,335,0.0,6.0,89,0.00,,,0.00,Wunderground v.1.15,2013-08-17 12:25:00,
2013-08-17 08:30:00,57.0,53.8,30.13,SW,219,0.0,6.0,89,0.00,,,0.00,Wunderground v.1.15,2013-08-17 12:30:00,
2013-08-17 08:35:00,57.3,54.1,30.13,WSW,243,0.0,6.0,89,0.00,,,0.00,Wunderground v.1.15,2013-08-17 12:35:00,
2013-08-17 08:40:00,57.6,54.4,30.14,SW,218,0.0,6.0,89,0.00,,,0.00,Wunderground v.1.15,2013-08-17 12:40:00,
2013-08-17 08:45:00,57.8,54.3,30.14,SSE,166,0.0,6.0,88,0.00,,,0.00,Wunderground v.1.15,2013-08-17 12:45:00,
2013-08-17 08:50:00,58.1,54.6,30.14,WSW,250,0.0,6.0,88,0.00,,,0.00,Wunderground v.1.15,2013-08-17 12:50:00,
2013-08-17 08:55:00,58.3,54.8,30.14,SE,132,0.0,6.0,88,0.00,,,0.00,Wunderground v.1.15,2013-08-17 12:55:00,
2013-08-17 09:00:00,58.4,54.5,30.14,SSE,152,0.0,6.0,87,0.00,,,0.00,Wunderground v.1.15,2013-08-17 13:00:00,
2013-08-17 09:05:00,58.5,54.6,30.14,South,188,0.0,6.0,87,0.00,,,0.00,Wunderground v.1.15,2013-08-17 13:05:00,
2013-08-17 09:10:00,58.8,54.3,30.14,SSW,205,1.0,6.0,85,0.00,,,0.00,Wunderground v.1.15,2013-08-17 13:10:00,
2013-08-17 09:15:00,59.3,55.1,30.14,SE,136,1.0,6.0,86,0.00,,,0.00,Wunderground v.1.15,2013-08-17 13:15:00,
2013-08-17 09:20:00,59.5,55.0,30.14,South,169,1.0,1.0,85,0.00,,,0.00,Wunderground v.1.15,2013-08-17 13:20:00,
2013-08-17 09:25:00,59.6,54.8,30.14,SSE,149,1.0,6.0,84,0.00,,,0.00,Wunderground v.1.15,2013-08-17 13:25:00,
2013-08-17 09:30:00,59.6,54.8,30.14,SE,139,1.0,1.0,84,0.00,,,0.00,Wunderground v.1.15,2013-08-17 13:30:00,
2013-08-17 09:35:00,59.7,55.5,30.15,SE,126,1.0,6.0,86,0.00,,,0.00,Wunderground v.1.15,2013-08-17 13:35:00,
2013-08-17 09:40:00,59.7,55.2,30.15,SSE,153,1.0,6.0,85,0.00,,,0.00,Wunderground v.1.15,2013-08-17 13:40:00,
2013-08-17 09:45:00,60.0,55.5,30.15,ESE,119,1.0,6.0,85,0.00,,,0.00,Wunderground v.1.15,2013-08-17 13:45:00,
2013-08-17 09:50:00,60.2,55.3,30.15,SW,222,1.0,6.0,84,0.00,,,0.00,Wunderground v.1.15,2013-08-17 13:50:00,
2013-08-17 09:55:00,60.9,55.7,30.15,SE,141,2.0,6.0,83,0.00,,,0.00,Wunderground v.1.15,2013-08-17 13:55:00,
2013-08-17 10:00:00,61.5,56.3,30.15,SSE,149,2.0,2.0,83,0.00,,,0.00,Wunderground v.1.15,2013-08-17 14:00:00,
2013-08-17 10:10:00,62.1,56.2,30.15,East,80,1.0,6.0,81,0.00,,,0.00,Wunderground v.1.15,2013-08-17 14:10:00,
2013-08-17 10:20:00,62.5,56.6,30.16,SE,133,2.0,2.0,81,0.00,,,0.00,Wunderground v.1.15,2013-08-17 14:20:00,
2013-08-17 10:30:00,62.6,56.7,30.16,SSE,163,2.0,6.0,81,0.00,,,0.00,Wunderground v.1.15,2013-08-17 14:30:00,
2013-08-17 10:35:00,62.4,56.5,30.16,SE,128,3.0,6.0,81,0.00,,,0.00,Wunderground v.1.15,2013-08-17 14:35:00,
2013-08-17 10:40:00,62.4,56.5,30.15,SE,141,2.0,2.0,81,0.00,,,0.00,Wunderground v.1.15,2013-08-17 14:40:00,
2013-08-17 10:50:00,62.8,57.2,30.15,South,186,2.0,6.0,82,0.00,,,0.00,Wunderground v.1.15,2013-08-17 14:50:00,
2013-08-17 11:00:00,63.5,56.9,30.15,SSE,148,2.0,2.0,79,0.00,,,0.00,Wunderground v.1.15,2013-08-17 15:00:00,
2013-08-17 11:05:00,63.7,57.4,30.15,West,262,2.0,6.0,80,0.00,,,0.00,Wunderground v.1.15,2013-08-17 15:05:00,
2013-08-17 11:10:00,64.1,58.1,30.15,SSE,163,2.0,6.0,81,0.00,,,0.00,Wunderground v.1.15,2013-08-17 15:10:00,
2013-08-17 11:15:00,64.7,58.0,30.15,SSW,203,2.0,6.0,79,0.00,,,0.00,Wunderground v.1.15,2013-08-17 15:15:00,
2013-08-17 11:25:00,64.6,57.6,30.15,SSW,207,3.0,6.0,78,0.00,,,0.00,Wunderground v.1.15,2013-08-17 15:25:00,
2013-08-17 11:30:00,64.5,57.5,30.15,ESE,110,3.0,3.0,78,0.00,,,0.00,Wunderground v.1.15,2013-08-17 15:30:00,
2013-08-17 11:40:00,64.7,58.0,30.15,East,84,2.0,2.0,79,0.00,,,0.00,Wunderground v.1.15,2013-08-17 15:40:00,
2013-08-17 11:45:00,64.7,58.0,30.14,SSW,208,2.0,6.0,79,0.00,,,0.00,Wunderground v.1.15,2013-08-17 15:45:00,
2013-08-17 11:50:00,64.6,58.3,30.14,ESE,122,2.0,6.0,80,0.00,,,0.00,Wunderground v.1.15,2013-08-17 15:50:00,
2013-08-17 11:55:00,64.5,57.8,30.15,SSW,200,3.0,6.0,79,0.00,,,0.00,Wunderground v.1.15,2013-08-17 15:55:00,
2013-08-17 12:00:00,64.2,57.5,30.15,SSE,162,3.0,6.0,79,0.00,,,0.00,Wunderground v.1.15,2013-08-17 16:00:00,
2013-08-17 12:05:00,64.0,57.7,30.14,SSE,156,3.0,6.0,80,0.00,,,0.00,Wunderground v.1.15,2013-08-17 16:05:00,
2013-08-17 12:10:00,64.1,58.1,30.14,ESE,108,2.0,6.0,81,0.00,,,0.00,Wunderground v.1.15,2013-08-17 16:10:00,
2013-08-17 12:15:00,63.9,57.6,30.14,South,191,3.0,6.0,80,0.00,,,0.00,Wunderground v.1.15,2013-08-17 16:15:00,
2013-08-17 12:20:00,63.6,57.7,30.15,SSE,152,3.0,3.0,81,0.00,,,0.00,Wunderground v.1.15,2013-08-17 16:20:00,
2013-08-17 12:25:00,63.4,57.5,30.14,SSE,154,3.0,6.0,81,0.00,,,0.00,Wunderground v.1.15,2013-08-17 16:25:00,
2013-08-17 12:30:00,63.4,57.8,30.14,ESE,122,2.0,6.0,82,0.00,,,0.00,Wunderground v.1.15,2013-08-17 16:30:00,
2013-08-17 12:35:00,63.2,57.6,30.14,NNE,22,2.0,6.0,82,0.00,,,0.00,Wunderground v.1.15,2013-08-17 16:35:00,
2013-08-17 12:40:00,63.2,57.6,30.14,SW,215,2.0,6.0,82,0.00,,,0.00,Wunderground v.1.15,2013-08-17 16:40:00,
2013-08-17 12:45:00,63.1,57.9,30.13,SSE,162,2.0,6.0,83,0.00,,,0.00,Wunderground v.1.15,2013-08-17 16:45:00,
2013-08-17 12:55:00,63.0,58.1,30.13,South,173,3.0,6.0,84,0.00,,,0.00,Wunderground v.1.15,2013-08-17 16:55:00,
2013-08-17 13:00:00,63.0,57.8,30.13,SE,137,2.0,2.0,83,0.00,,,0.00,Wunderground v.1.15,2013-08-17 17:00:00,
2013-08-17 13:05:00,63.1,57.9,30.13,ESE,117,2.0,6.0,83,0.00,,,0.00,Wunderground v.1.15,2013-08-17 17:05:00,
2013-08-17 13:10:00,63.2,57.6,30.13,SW,215,2.0,6.0,82,0.00,,,0.00,Wunderground v.1.15,2013-08-17 17:10:00,
2013-08-17 13:15:00,63.2,57.9,30.14,East,85,2.0,6.0,83,0.00,,,0.00,Wunderground v.1.15,2013-08-17 17:15:00,
2013-08-17 13:20:00,63.6,58.3,30.13,South,181,2.0,2.0,83,0.00,,,0.00,Wunderground v.1.15,2013-08-17 17:20:00,
2013-08-17 13:25:00,63.8,58.5,30.13,SSE,156,2.0,6.0,83,0.00,,,0.00,Wunderground v.1.15,2013-08-17 17:25:00,
2013-08-17 13:30:00,64.0,58.7,30.13,SE,145,2.0,6.0,83,0.00,,,0.00,Wunderground v.1.15,2013-08-17 17:30:00,
2013-08-17 13:35:00,63.9,58.3,30.13,SW,236,2.0,6.0,82,0.00,,,0.00,Wunderground v.1.15,2013-08-17 17:35:00,
2013-08-17 13:40:00,63.7,58.1,30.13,ESE,121,3.0,3.0,82,0.00,,,0.00,Wunderground v.1.15,2013-08-17 17:40:00,
2013-08-17 13:50:00,63.5,58.6,30.13,SSE,153,2.0,6.0,84,0.00,,,0.00,Wunderground v.1.15,2013-08-17 17:50:00,
2013-08-17 13:55:00,63.2,58.3,30.12,SW,219,2.0,6.0,84,0.00,,,0.00,Wunderground v.1.15,2013-08-17 17:55:00,
2013-08-17 14:00:00,63.1,58.2,30.12,SSW,203,2.0,2.0,84,0.00,,,0.00,Wunderground v.1.15,2013-08-17 18:00:00,
2013-08-17 14:05:00,63.1,58.5,30.12,SE,139,2.0,6.0,85,0.00,,,0.00,Wunderground v.1.15,2013-08-17 18:05:00,
2013-08-17 14:10:00,63.0,58.4,30.12,SW,233,2.0,6.0,85,0.00,,,0.00,Wunderground v.1.15,2013-08-17 18:10:00,
2013-08-17 14:15:00,62.8,58.2,30.13,ESE,122,2.0,7.0,85,0.00,,,0.00,Wunderground v.1.15,2013-08-17 18:15:00,
2013-08-17 14:20:00,62.7,58.1,30.13,West,274,2.0,6.0,85,0.00,,,0.00,Wunderground v.1.15,2013-08-17 18:20:00,
2013-08-17 14:25:00,62.6,58.4,30.12,ESE,123,2.0,6.0,86,0.00,,,0.00,Wunderground v.1.15,2013-08-17 18:25:00,
2013-08-17 14:30:00,62.5,58.3,30.12,SSE,158,2.0,6.0,86,0.00,,,0.00,Wunderground v.1.15,2013-08-17 18:30:00,
2013-08-17 14:35:00,62.4,58.5,30.12,SSW,211,3.0,6.0,87,0.00,,,0.00,Wunderground v.1.15,2013-08-17 18:35:00,
2013-08-17 14:40:00,62.3,58.1,30.12,SSE,148,3.0,3.0,86,0.00,,,0.00,Wunderground v.1.15,2013-08-17 18:40:00,
2013-08-17 14:45:00,62.2,58.3,30.12,SSE,155,3.0,4.0,87,0.00,,,0.00,Wunderground v.1.15,2013-08-17 18:45:00,
2013-08-17 14:55:00,61.8,58.2,30.12,South,172,3.0,6.0,88,0.00,,,0.00,Wunderground v.1.15,2013-08-17 18:55:00,
2013-08-17 15:00:00,61.8,58.2,30.12,South,186,2.0,6.0,88,0.00,,,0.00,Wunderground v.1.15,2013-08-17 19:00:00,
2013-08-17 15:05:00,61.7,58.4,30.12,SE,143,2.0,6.0,89,0.00,,,0.00,Wunderground v.1.15,2013-08-17 19:05:00,
2013-08-17 15:10:00,61.7,58.4,30.11,East,98,1.0,1.0,89,0.00,,,0.00,Wunderground v.1.15,2013-08-17 19:10:00,
2013-08-17 15:15:00,61.9,58.6,30.11,SSE,149,0.0,6.0,89,0.00,,,0.00,Wunderground v.1.15,2013-08-17 19:15:00,
2013-08-17 15:20:00,62.0,58.7,30.11,SSE,166,0.0,6.0,89,0.00,,,0.00,Wunderground v.1.15,2013-08-17 19:20:00,
2013-08-17 15:25:00,62.0,58.7,30.11,SW,219,1.0,6.0,89,0.00,,,0.00,Wunderground v.1.15,2013-08-17 19:25:00,
2013-08-17 15:35:00,62.0,58.7,30.11,SE,143,1.0,6.0,89,0.00,,,0.00,Wunderground v.1.15,2013-08-17 19:35:00,
2013-08-17 15:40:00,62.1,59.1,30.11,South,176,1.0,6.0,90,0.00,,,0.00,Wunderground v.1.15,2013-08-17 19:40:00,
2013-08-17 15:45:00,62.1,58.8,30.11,South,187,2.0,6.0,89,0.00,,,0.00,Wunderground v.1.15,2013-08-17 19:45:00,
2013-08-17 15:50:00,62.0,59.0,30.11,SSE,156,2.0,6.0,90,0.00,,,0.00,Wunderground v.1.15,2013-08-17 19:50:00,
2013-08-17 15:55:00,61.9,58.9,30.10,WSW,256,2.0,6.0,90,0.00,,,0.00,Wunderground v.1.15,2013-08-17 19:55:00,
2013-08-17 16:00:00,61.9,59.2,30.10,SE,134,2.0,2.0,91,0.00,,,0.00,Wunderground v.1.15,2013-08-17 20:00:00,
2013-08-17 16:05:00,61.9,59.2,30.10,ESE,122,2.0,3.0,91,0.00,,,0.00,Wunderground v.1.15,2013-08-17 20:05:00,
2013-08-17 16:15:00,61.7,59.0,30.10,ESE,114,3.0,6.0,91,0.00,,,0.00,Wunderground v.1.15,2013-08-17 20:15:00,
2013-08-17 16:25:00,61.8,59.5,30.10,South,178,2.0,6.0,92,0.00,,,0.00,Wunderground v.1.15,2013-08-17 20:25:00,
2013-08-17 16:30:00,61.8,59.5,30.10,South,186,2.0,6.0,92,0.00,,,0.00,Wunderground v.1.15,2013-08-17 20:30:00,
2013-08-17 16:35:00,61.8,59.5,30.10,SE,131,2.0,6.0,92,0.00,,,0.00,Wunderground v.1.15,2013-08-17 20:35:00,
2013-08-17 16:40:00,61.7,59.4,30.09,South,174,2.0,6.0,92,0.00,,,0.00,Wunderground v.1.15,2013-08-17 20:40:00,
2013-08-17 16:45:00,61.6,59.3,30.09,SSW,197,3.0,6.0,92,0.00,,,0.00,Wunderground v.1.15,2013-08-17 20:45:00,
2013-08-17 16:50:00,61.6,59.6,30.09,South,172,2.0,6.0,93,0.00,,,0.00,Wunderground v.1.15,2013-08-17 20:50:00,
2013-08-17 16:55:00,61.6,59.6,30.09,SSE,156,2.0,6.0,93,0.00,,,0.00,Wunderground v.1.15,2013-08-17 20:55:00,
2013-08-17 17:00:00,61.6,59.6,30.09,ESE,106,1.0,6.0,93,0.00,,,0.00,Wunderground v.1.15,2013-08-17 21:00:00,
2013-08-17 17:05:00,61.6,59.6,30.09,SSE,152,1.0,6.0,93,0.00,,,0.00,Wunderground v.1.15,2013-08-17 21:05:00,
2013-08-17 17:15:00,61.5,59.8,30.09,SSE,166,2.0,6.0,94,0.00,,,0.00,Wunderground v.1.15,2013-08-17 21:15:00,
2013-08-17 17:20:00,61.5,59.8,30.09,SSE,162,2.0,6.0,94,0.00,,,0.00,Wunderground v.1.15,2013-08-17 21:20:00,
2013-08-17 17:25:00,61.4,59.7,30.10,SSE,160,2.0,6.0,94,0.00,,,0.00,Wunderground v.1.15,2013-08-17 21:25:00,
2013-08-17 17:30:00,61.5,59.8,30.10,SE,127,1.0,6.0,94,0.00,,,0.00,Wunderground v.1.15,2013-08-17 21:30:00,
2013-08-17 17:35:00,61.5,59.8,30.09,ESE,121,1.0,6.0,94,0.00,,,0.00,Wunderground v.1.15,2013-08-17 21:35:00,
2013-08-17 17:40:00,61.4,59.7,30.10,SSE,160,1.0,6.0,94,0.00,,,0.00,Wunderground v.1.15,2013-08-17 21:40:00,
2013-08-17 17:45:00,61.4,59.7,30.10,SW,219,2.0,6.0,94,0.00,,,0.00,Wunderground v.1.15,2013-08-17 21:45:00,
2013-08-17 17:50:00,61.4,60.0,30.10,SSE,167,2.0,6.0,95,0.00,,,0.00,Wunderground v.1.15,2013-08-17 21:50:00,
2013-08-17 17:55:00,61.4,60.0,30.10,ESE,119,2.0,6.0,95,0.00,,,0.00,Wunderground v.1.15,2013-08-17 21:55:00,
2013-08-17 18:00:00,61.4,60.0,30.10,SE,132,2.0,2.0,95,0.00,,,0.00,Wunderground v.1.15,2013-08-17 22:00:00,
2013-08-17 18:05:00,61.4,60.0,30.10,WSW,246,1.0,6.0,95,0.00,,,0.00,Wunderground v.1.15,2013-08-17 22:05:00,
2013-08-17 18:10:00,61.4,60.0,30.10,SSE,153,2.0,2.0,95,0.00,,,0.00,Wunderground v.1.15,2013-08-17 22:10:00,
2013-08-17 18:15:00,61.4,60.0,30.10,South,176,2.0,6.0,95,0.00,,,0.00,Wunderground v.1.15,2013-08-17 22:15:00,
2013-08-17 18:20:00,61.3,59.9,30.10,SSW,205,2.0,6.0,95,0.00,,,0.00,Wunderground v.1.15,2013-08-17 22:20:00,
2013-08-17 18:30:00,61.2,59.8,30.10,SSE,164,2.0,2.0,95,0.00,,,0.00,Wunderground v.1.15,2013-08-17 22:30:00,
2013-08-17 18:35:00,61.2,59.8,30.09,ESE,122,2.0,5.0,95,0.00,,,0.00,Wunderground v.1.15,2013-08-17 22:35:00,
2013-08-17 18:40:00,61.2,59.8,30.09,ESE,120,2.0,2.0,95,0.00,,,0.01,Wunderground v.1.15,2013-08-17 22:40:00,
2013-08-17 18:45:00,61.1,59.7,30.09,SW,229,1.0,6.0,95,0.00,,,0.01,Wunderground v.1.15,2013-08-17 22:45:00,
2013-08-17 18:55:00,61.0,59.6,30.09,SSE,152,1.0,6.0,95,0.00,,,0.01,Wunderground v.1.15,2013-08-17 22:55:00,
2013-08-17 19:05:00,60.9,59.8,30.09,SSW,201,1.0,6.0,96,0.00,,,0.01,Wunderground v.1.15,2013-08-17 23:05:00,
2013-08-17 19:10:00,60.9,59.8,30.09,ESE,108,1.0,1.0,96,0.00,,,0.01,Wunderground v.1.15,2013-08-17 23:10:00,
2013-08-17 19:15:00,60.8,59.7,30.09,South,173,1.0,3.0,96,0.00,,,0.01,Wunderground v.1.15,2013-08-17 23:15:00,
2013-08-17 19:20:00,60.7,59.6,30.09,WSW,243,1.0,1.0,96,0.00,,,0.01,Wunderground v.1.15,2013-08-17 23:20:00,
2013-08-17 19:25:00,60.7,59.6,30.09,SE,126,1.0,6.0,96,0.00,,,0.01,Wunderground v.1.15,2013-08-17 23:25:00,
2013-08-17 19:30:00,60.6,59.5,30.09,SW,217,1.0,1.0,96,0.00,,,0.01,Wunderground v.1.15,2013-08-17 23:30:00,
2013-08-17 19:35:00,60.6,59.5,30.09,ESE,110,0.0,6.0,96,0.00,,,0.02,Wunderground v.1.15,2013-08-17 23:35:00,
2013-08-17 19:40:00,60.6,59.5,30.09,SE,146,0.0,6.0,96,0.00,,,0.02,Wunderground v.1.15,2013-08-17 23:40:00,
2013-08-17 19:45:00,60.5,59.4,30.09,South,181,0.0,6.0,96,0.00,,,0.02,Wunderground v.1.15,2013-08-17 23:45:00,
2013-08-17 19:50:00,60.5,59.4,30.09,SW,222,1.0,6.0,96,0.00,,,0.02,Wunderground v.1.15,2013-08-17 23:50:00,
2013-08-17 20:00:00,60.4,59.3,30.09,South,173,0.0,6.0,96,0.00,,,0.02,Wunderground v.1.15,2013-08-18 00:00:00,
2013-08-17 20:05:00,60.3,59.2,30.09,SE,134,1.0,6.0,96,0.00,,,0.02,Wunderground v.1.15,2013-08-18 00:05:00,
2013-08-17 20:10:00,60.3,59.2,30.09,ESE,113,1.0,1.0,96,0.00,,,0.03,Wunderground v.1.15,2013-08-18 00:10:00,
2013-08-17 20:15:00,60.3,59.2,30.10,South,186,1.0,4.0,96,0.00,,,0.03,Wunderground v.1.15,2013-08-18 00:15:00,
2013-08-17 20:20:00,60.2,59.1,30.10,SSE,156,1.0,1.0,96,0.00,,,0.03,Wunderground v.1.15,2013-08-18 00:20:00,
2013-08-17 20:25:00,60.1,59.0,30.10,SSW,208,1.0,2.0,96,0.00,,,0.03,Wunderground v.1.15,2013-08-18 00:25:00,
2013-08-17 20:30:00,60.1,59.0,30.10,SE,131,1.0,1.0,96,0.00,,,0.03,Wunderground v.1.15,2013-08-18 00:30:00,
2013-08-17 20:35:00,60.0,58.9,30.10,South,169,1.0,6.0,96,0.00,,,0.03,Wunderground v.1.15,2013-08-18 00:35:00,
2013-08-17 20:40:00,60.0,58.9,30.10,South,191,2.0,2.0,96,0.00,,,0.03,Wunderground v.1.15,2013-08-18 00:40:00,
2013-08-17 20:45:00,59.9,58.8,30.11,ESE,102,2.0,6.0,96,0.00,,,0.03,Wunderground v.1.15,2013-08-18 00:45:00,
2013-08-17 20:50:00,59.9,59.0,30.10,South,184,1.0,1.0,97,0.00,,,0.03,Wunderground v.1.15,2013-08-18 00:50:00,
2013-08-17 20:55:00,59.9,59.0,30.10,South,186,1.0,6.0,97,0.00,,,0.03,Wunderground v.1.15,2013-08-18 00:55:00,
2013-08-17 21:00:00,59.9,59.0,30.10,SSW,203,0.0,6.0,97,0.00,,,0.03,Wunderground v.1.15,2013-08-18 01:00:00,
2013-08-17 21:05:00,59.9,59.0,30.10,SE,125,0.0,6.0,97,0.00,,,0.03,Wunderground v.1.15,2013-08-18 01:05:00,
2013-08-17 21:15:00,59.8,58.9,30.10,South,187,1.0,6.0,97,0.00,,,0.04,Wunderground v.1.15,2013-08-18 01:15:00,
2013-08-17 21:20:00,59.8,58.9,30.10,South,184,1.0,6.0,97,0.00,,,0.04,Wunderground v.1.15,2013-08-18 01:20:00,
2013-08-17 21:25:00,59.8,58.9,30.11,SW,217,1.0,6.0,97,0.00,,,0.04,Wunderground v.1.15,2013-08-18 01:25:00,
2013-08-17 21:35:00,59.7,58.8,30.11,SW,224,1.0,6.0,97,0.00,,,0.04,Wunderground v.1.15,2013-08-18 01:35:00,
2013-08-17 21:40:00,59.7,58.8,30.11,SSW,212,2.0,2.0,97,0.00,,,0.04,Wunderground v.1.15,2013-08-18 01:40:00,
2013-08-17 21:45:00,59.7,58.8,30.12,SE,130,2.0,6.0,97,0.00,,,0.04,Wunderground v.1.15,2013-08-18 01:45:00,
2013-08-17 21:50:00,59.7,58.8,30.13,South,179,1.0,1.0,97,0.00,,,0.04,Wunderground v.1.15,2013-08-18 01:50:00,
2013-08-17 22:00:00,59.8,58.9,30.14,ENE,77,0.0,6.0,97,0.00,,,0.04,Wunderground v.1.15,2013-08-18 02:00:00,
2013-08-17 22:10:00,59.8,58.9,30.14,SSE,148,0.0,6.0,97,0.00,,,0.05,Wunderground v.1.15,2013-08-18 02:10:00,
2013-08-17 22:15:00,59.8,58.9,30.14,SSE,163,0.0,6.0,97,0.05,,,0.06,Wunderground v.1.15,2013-08-18 02:15:00,
2013-08-17 22:25:00,59.8,58.9,30.14,South,169,0.0,6.0,97,0.14,,,0.08,Wunderground v.1.15,2013-08-18 02:25:00,
2013-08-17 22:30:00,59.7,58.8,30.14,SSE,160,0.0,6.0,97,0.19,,,0.10,Wunderground v.1.15,2013-08-18 02:30:00,
2013-08-17 22:35:00,59.7,58.8,30.14,SSE,162,0.0,6.0,97,0.11,,,0.11,Wunderground v.1.15,2013-08-18 02:35:00,
2013-08-17 22:40:00,59.7,58.8,30.14,SE,136,0.0,6.0,97,0.10,,,0.11,Wunderground v.1.15,2013-08-18 02:40:00,
2013-08-17 22:45:00,59.7,58.8,30.14,ESE,114,0.0,6.0,97,0.06,,,0.12,Wunderground v.1.15,2013-08-18 02:45:00,
2013-08-17 22:50:00,59.7,58.8,30.14,SW,219,1.0,1.0,97,0.06,,,0.12,Wunderground v.1.15,2013-08-18 02:50:00,
2013-08-17 22:55:00,59.7,58.8,30.14,South,174,0.0,6.0,97,0.05,,,0.12,Wunderground v.1.15,2013-08-18 02:55:00,
2013-08-17 23:00:00,59.7,58.8,30.14,SE,145,1.0,6.0,97,0.05,,,0.13,Wunderground v.1.15,2013-08-18 03:00:00,
2013-08-17 23:05:00,59.7,58.8,30.15,SE,142,1.0,6.0,97,0.05,,,0.13,Wunderground v.1.15,2013-08-18 03:05:00,
2013-08-17 23:10:00,59.7,58.8,30.14,SE,134,1.0,6.0,97,0.05,,,0.14,Wunderground v.1.15,2013-08-18 03:10:00,
2013-08-17 23:15:00,59.6,58.7,30.14,SSE,152,1.0,6.0,97,0.05,,,0.14,Wunderground v.1.15,2013-08-18 03:15:00,
2013-08-17 23:20:00,59.6,58.7,30.14,WSW,245,1.0,1.0,97,0.05,,,0.14,Wunderground v.1.15,2013-08-18 03:20:00,
2013-08-17 23:25:00,59.6,58.7,30.14,SE,133,1.0,6.0,97,0.00,,,0.14,Wunderground v.1.15,2013-08-18 03:25:00,
2013-08-17 23:35:00,59.6,58.7,30.15,SE,139,0.0,6.0,97,0.00,,,0.14,Wunderground v.1.15,2013-08-18 03:35:00,
2013-08-17 23:40:00,59.5,58.6,30.15,ESE,107,0.0,6.0,97,0.00,,,0.14,Wunderground v.1.15,2013-08-18 03:40:00,
2013-08-17 23:50:00,59.6,58.7,30.15,SSW,204,0.0,6.0,97,0.00,,,0.14,Wunderground v.1.15,2013-08-18 03:50:00,
2013-08-17 23:55:00,59.6,58.7,30.15,ESE,105,0.0,6.0,97,0.00,,,0.14,Wunderground v.1.15,2013-08-18 03:55:00,